�N����,����,�~����,�C��,���x,�C��,����,���ϕ���,�ő�u�ԕ���,�ő厞����,���˗�,�I�_���x,�n�����x,�ő啗���N��,DTYPE
"20/04/05","00:10",0.0,9.2,78.2,1010.0,331.8,3.4,6.6,331.0,0.00,5.6,12.7,"00:09:04",1
"20/04/05","00:20",0.0,9.2,78.4,1010.0,325.4,4.4,9.1,337.1,0.00,5.7,12.6,"00:19:34",1
"20/04/05","00:30",0.0,9.1,78.4,1010.0,317.2,4.1,8.2,325.9,0.00,5.6,12.6,"00:28:54",1
"20/04/05","00:40",0.0,9.1,78.5,1010.0,324.6,4.2,8.9,342.8,0.00,5.6,12.4,"00:33:56",1
"20/04/05","00:50",0.0,8.9,78.6,1010.0,331.0,3.2,5.6,321.4,0.00,5.4,12.5,"00:44:08",1
"20/04/05","01:00",0.0,8.9,78.4,1010.2,332.2,3.5,5.7,343.0,0.00,5.4,12.7,"00:55:52",1
"20/04/05","01:10",0.0,8.9,78.5,1010.7,331.1,3.7,6.4,334.4,0.00,5.4,12.5,"01:08:06",1
"20/04/05","01:20",0.0,8.8,78.3,1010.2,324.9,4.4,6.6,331.4,0.00,5.3,12.3,"01:11:20",1
"20/04/05","01:30",0.0,8.7,78.3,1010.2,328.9,3.4,7.2,321.7,0.00,5.2,12.4,"01:28:32",1
"20/04/05","01:40",0.0,8.6,78.4,1010.4,324.9,2.8,5.6,330.0,0.00,5.1,12.3,"01:35:44",1
"20/04/05","01:50",0.0,8.6,78.5,1010.4,332.2,3.7,5.9,342.3,0.00,5.1,12.1,"01:48:00",1
"20/04/05","02:00",0.0,8.6,78.4,1010.2,331.7,3.7,7.0,323.3,0.00,5.1,12.2,"01:57:30",1
"20/04/05","02:10",0.0,8.6,78.2,1010.0,335.5,4.1,6.8,320.4,0.00,5.1,12.2,"02:01:04",1
"20/04/05","02:20",0.0,8.5,77.9,1010.2,317.8,4.0,6.3,338.9,0.00,4.9,12.2,"02:12:50",1
"20/04/05","02:30",0.0,8.5,77.7,1010.0,327.3,3.7,6.0,335.6,0.00,4.9,12.3,"02:22:32",1
"20/04/05","02:40",0.0,8.5,77.6,1010.2,331.3,3.7,8.3,315.8,0.00,4.9,12.1,"02:34:54",1
"20/04/05","02:50",0.0,8.4,77.5,1010.0,323.7,4.0,9.7,335.9,0.00,4.7,11.9,"02:48:40",1
"20/04/05","03:00",0.0,8.3,77.5,1010.4,321.4,4.6,8.5,333.7,0.00,4.6,11.9,"02:58:06",1
"20/04/05","03:10",0.0,8.3,77.3,1009.5,327.1,5.0,8.6,325.0,0.00,4.6,12.1,"03:06:08",1
"20/04/05","03:20",0.0,8.2,76.8,1010.0,330.8,4.5,7.8,340.5,0.00,4.4,12.0,"03:15:50",1
"20/04/05","03:30",0.0,8.2,76.0,1009.5,324.8,4.7,7.7,336.7,0.00,4.3,12.0,"03:20:52",1
"20/04/05","03:40",0.0,8.1,75.5,1009.5,330.4,3.5,6.7,323.7,0.00,4.1,11.9,"03:30:56",1
"20/04/05","03:50",0.0,7.8,75.3,1010.0,324.8,2.8,6.0,298.8,0.00,3.7,12.0,"03:43:38",1
"20/04/05","04:00",0.0,7.7,75.2,1010.0,331.2,3.2,8.2,331.9,0.00,3.6,11.9,"03:50:40",1
"20/04/05","04:10",0.0,7.7,75.1,1010.2,328.9,3.9,7.7,333.4,0.00,3.6,11.7,"04:05:04",1
"20/04/05","04:20",0.0,7.6,75.1,1010.2,329.3,2.8,5.6,323.9,0.00,3.5,11.9,"04:13:12",1
"20/04/05","04:30",0.0,7.6,75.0,1010.0,340.1,2.7,6.3,345.7,0.00,3.5,11.7,"04:23:52",1
"20/04/05","04:40",0.0,7.6,74.8,1009.7,336.7,2.8,5.4,337.2,0.00,3.5,11.9,"04:34:16",1
"20/04/05","04:50",0.0,7.5,74.9,1009.7,326.3,3.1,7.9,325.3,0.00,3.4,11.7,"04:44:34",1
"20/04/05","05:00",0.0,7.5,74.9,1009.7,330.4,3.6,7.1,344.1,0.00,3.4,11.6,"04:58:18",1
"20/04/05","05:10",0.0,7.4,75.1,1010.0,325.4,4.5,8.1,329.3,0.00,3.3,11.6,"05:01:54",1
"20/04/05","05:20",0.0,7.4,75.1,1010.0,329.6,5.0,9.4,333.7,0.00,3.3,11.6,"05:16:54",1
"20/04/05","05:30",0.0,7.4,75.2,1010.2,324.7,3.5,8.3,335.1,0.00,3.3,11.4,"05:23:38",1
"20/04/05","05:40",0.0,7.3,75.3,1010.4,313.9,3.5,5.5,344.8,0.00,3.3,11.4,"05:34:46",1
"20/04/05","05:50",0.0,7.3,75.4,1010.9,324.4,4.5,7.4,323.5,0.00,3.3,11.5,"05:41:24",1
"20/04/05","06:00",0.0,7.1,75.5,1010.4,317.9,4.2,6.5,339.8,0.00,3.1,11.5,"05:51:52",1
"20/04/05","06:10",0.0,7.0,75.3,1010.9,331.9,5.0,8.6,339.7,0.00,3.0,11.5,"06:08:52",1
"20/04/05","06:20",0.0,6.7,75.3,1011.4,339.6,4.9,8.6,338.7,0.00,2.7,11.4,"06:15:58",1
"20/04/05","06:30",0.0,6.6,75.0,1011.2,327.7,4.2,6.7,338.1,0.00,2.5,11.2,"06:29:48",1
"20/04/05","06:40",0.0,6.6,74.5,1011.4,336.9,4.0,7.2,345.3,0.00,2.4,11.2,"06:33:40",1
"20/04/05","06:50",0.0,6.6,74.1,1011.6,338.9,3.0,5.8,330.2,0.00,2.4,11.3,"06:40:32",1
"20/04/05","07:00",0.0,6.6,73.8,1011.4,338.4,2.5,5.6,333.8,0.00,2.3,11.3,"06:50:32",1
"20/04/05","07:10",0.0,6.6,73.5,1011.9,333.7,3.2,5.9,330.6,0.00,2.2,11.4,"07:01:12",1
"20/04/05","07:20",0.0,6.6,73.1,1011.9,320.1,3.2,5.1,315.7,0.00,2.2,11.3,"07:15:00",1
"20/04/05","07:30",0.0,6.6,72.7,1011.9,329.1,2.2,4.8,318.9,0.01,2.1,11.4,"07:20:08",1
"20/04/05","07:40",0.0,6.6,72.5,1011.6,320.1,2.3,4.3,298.1,0.02,2.1,11.2,"07:35:04",1
"20/04/05","07:50",0.0,7.3,72.1,1011.9,327.3,2.6,5.1,336.1,0.07,2.7,11.2,"07:42:08",1
"20/04/05","08:00",0.0,8.0,70.2,1012.1,309.8,2.1,5.8,342.4,0.11,2.9,11.2,"07:58:48",1
"20/04/05","08:10",0.0,8.1,67.3,1012.1,340.8,3.1,6.0,338.7,0.13,2.5,11.3,"08:03:28",1
"20/04/05","08:20",0.0,8.3,66.4,1012.1,345.3,3.1,6.3,349.8,0.17,2.5,11.2,"08:14:40",1
"20/04/05","08:30",0.0,8.6,65.5,1012.3,335.7,3.7,7.0,339.6,0.20,2.5,11.4,"08:26:08",1
"20/04/05","08:40",0.0,8.7,64.2,1012.8,339.1,3.7,7.2,337.6,0.24,2.4,11.4,"08:33:12",1
"20/04/05","08:50",0.0,8.6,63.6,1012.6,330.5,4.7,8.3,316.7,0.28,2.1,11.5,"08:45:52",1
"20/04/05","09:00",0.0,9.0,62.5,1012.1,349.3,3.4,6.3,293.1,0.30,2.3,11.7,"08:50:32",1
"20/04/05","09:10",0.0,9.3,61.7,1012.6,337.6,3.6,10.0,343.9,0.30,2.4,11.7,"09:05:20",1
"20/04/05","09:20",0.0,9.0,60.9,1012.3,344.4,4.0,5.8,348.0,0.26,1.9,11.6,"09:11:20",1
"20/04/05","09:30",0.0,9.4,61.5,1012.6,347.6,3.5,6.5,322.9,0.31,2.4,11.6,"09:20:34",1
"20/04/05","09:40",0.0,10.3,59.2,1012.6,356.8,2.5,5.4,348.3,0.41,2.7,12.0,"09:33:28",1
"20/04/05","09:50",0.0,9.8,58.5,1012.3,322.5,4.4,9.3,344.4,0.32,2.1,12.1,"09:46:32",1
"20/04/05","10:00",0.0,9.8,58.8,1012.3,301.5,3.5,6.5,325.6,0.27,2.2,12.1,"09:56:48",1
"20/04/05","10:10",0.0,10.2,59.1,1012.1,314.2,3.9,8.1,342.3,0.27,2.6,12.0,"10:01:28",1
"20/04/05","10:20",0.0,10.2,58.1,1012.8,333.0,5.1,9.1,342.3,0.35,2.4,12.2,"10:11:28",1
"20/04/05","10:30",0.0,10.9,54.9,1012.3,359.8,3.0,7.1,345.1,0.58,2.2,12.3,"10:21:20",1
"20/04/05","10:40",0.0,10.8,52.9,1012.3,344.4,4.4,8.8,319.9,0.53,1.6,12.5,"10:33:52",1
"20/04/05","10:50",0.0,11.0,51.3,1012.8,358.7,4.0,8.1,326.5,0.56,1.4,12.6,"10:42:00",1
"20/04/05","11:00",0.0,10.8,50.1,1012.6,4.8,4.2,9.0,338.2,0.54,0.9,12.8,"10:54:24",1
"20/04/05","11:10",0.0,10.6,49.6,1012.3,353.4,4.6,13.3,310.4,0.53,0.5,12.8,"11:07:08",1
"20/04/05","11:20",0.0,10.7,47.5,1012.8,350.9,5.7,10.9,342.2,0.61,0.0,12.9,"11:12:40",1
"20/04/05","11:30",0.0,11.7,47.5,1012.6,352.1,3.5,7.5,349.2,0.64,1.0,13.2,"11:25:20",1
"20/04/05","11:40",0.0,11.8,47.1,1012.6,348.2,3.2,7.1,336.2,0.58,0.9,13.2,"11:34:48",1
"20/04/05","11:50",0.0,12.0,47.0,1012.6,337.7,3.9,8.8,336.2,0.62,1.1,13.5,"11:40:02",1
"20/04/05","12:00",0.0,12.2,44.4,1012.6,337.7,4.6,9.7,344.7,0.69,0.5,13.7,"11:52:48",1
"20/04/05","12:10",0.0,12.1,46.9,1012.3,338.0,4.1,8.7,330.0,0.60,1.1,13.8,"12:05:36",1
"20/04/05","12:20",0.0,11.6,49.4,1012.6,349.6,4.0,9.4,334.0,0.48,1.4,13.8,"12:16:32",1
"20/04/05","12:30",0.0,10.7,50.2,1011.9,358.0,3.7,8.3,341.6,0.23,0.8,13.9,"12:27:44",1
"20/04/05","12:40",0.0,10.5,49.6,1012.3,349.5,4.5,8.5,341.3,0.20,0.5,14.0,"12:35:52",1
"20/04/05","12:50",0.0,11.4,46.7,1012.1,355.2,4.5,8.0,338.6,0.56,0.4,14.1,"12:46:48",1
"20/04/05","13:00",0.0,11.9,43.9,1012.1,346.2,5.0,9.0,348.0,0.61,0.1,14.2,"12:50:08",1
"20/04/05","13:10",0.0,11.8,41.8,1012.1,346.3,4.5,8.9,341.1,0.64,-0.7,14.2,"13:08:16",1
"20/04/05","13:20",0.0,11.7,40.2,1012.1,343.1,5.2,9.7,327.4,0.62,-1.3,14.0,"13:19:36",1
"20/04/05","13:30",0.0,12.1,41.5,1011.9,350.8,3.7,7.4,319.5,0.50,-0.5,14.3,"13:20:08",1
"20/04/05","13:40",0.0,12.0,40.3,1011.9,344.4,4.9,8.9,336.6,0.59,-1.0,14.3,"13:33:44",1
"20/04/05","13:50",0.0,12.2,38.9,1011.6,355.1,3.9,7.5,343.9,0.61,-1.3,14.5,"13:46:32",1
"20/04/05","14:00",0.0,12.2,39.6,1011.6,347.9,4.2,9.0,348.3,0.57,-1.1,14.4,"13:53:20",1
"20/04/05","14:10",0.0,12.3,38.5,1011.4,338.6,4.9,9.6,320.4,0.57,-1.4,14.7,"14:02:40",1
"20/04/05","14:20",0.0,12.1,39.3,1011.6,325.6,5.7,10.4,337.7,0.51,-1.3,14.7,"14:17:04",1
"20/04/05","14:30",0.0,13.0,40.5,1011.2,341.2,3.6,7.0,346.7,0.55,-0.1,15.1,"14:22:08",1
"20/04/05","14:40",0.0,13.0,39.9,1011.2,345.1,3.9,7.4,20.4,0.55,-0.3,15.0,"14:30:16",1
"20/04/05","14:50",0.0,12.7,40.3,1011.4,351.2,3.7,7.2,322.8,0.55,-0.4,15.1,"14:41:36",1
"20/04/05","15:00",0.0,12.2,40.8,1011.2,347.6,3.6,6.8,354.6,0.36,-0.7,15.1,"14:50:24",1
"20/04/05","15:10",0.0,12.4,42.2,1011.4,330.6,4.1,7.1,342.0,0.42,0.0,15.1,"15:01:20",1
"20/04/05","15:20",0.0,11.7,41.9,1011.2,351.9,3.9,7.7,336.6,0.29,-0.8,15.2,"15:11:44",1
"20/04/05","15:30",0.0,12.2,41.8,1011.4,342.7,4.9,11.3,340.6,0.47,-0.4,15.3,"15:26:56",1
"20/04/05","15:40",0.0,11.8,39.3,1011.4,325.2,5.5,10.4,330.0,0.31,-1.6,14.9,"15:39:28",1
"20/04/05","15:50",0.0,12.0,42.8,1011.4,339.5,3.6,9.1,328.5,0.37,-0.2,15.1,"15:40:40",1
"20/04/05","16:00",0.0,12.1,41.9,1011.6,334.2,3.2,6.5,341.3,0.34,-0.4,15.2,"15:50:16",1
"20/04/05","16:10",0.0,11.3,43.0,1011.6,339.9,3.2,7.1,338.0,0.12,-0.8,15.1,"16:06:00",1
"20/04/05","16:20",0.0,10.7,44.5,1011.6,346.0,4.5,10.1,332.0,0.09,-0.9,14.7,"16:14:24",1
"20/04/05","16:30",0.0,10.8,45.2,1011.4,326.8,3.6,6.8,322.5,0.09,-0.5,15.0,"16:28:24",1
"20/04/05","16:40",0.0,10.6,44.6,1011.6,339.5,4.5,10.1,325.0,0.07,-0.9,14.8,"16:31:04",1
"20/04/05","16:50",0.0,10.4,46.7,1011.2,348.6,3.6,8.2,341.0,0.06,-0.5,14.5,"16:48:04",1
"20/04/05","17:00",0.0,10.3,47.3,1011.6,345.3,3.7,8.3,344.5,0.06,-0.4,14.6,"16:55:22",1
"20/04/05","17:10",0.0,10.5,49.2,1011.6,342.8,3.0,6.0,344.3,0.06,0.3,14.4,"17:00:32",1
"20/04/05","17:20",0.0,10.1,52.0,1011.6,335.1,3.6,6.5,324.0,0.03,0.7,14.4,"17:11:20",1
"20/04/05","17:30",0.0,9.8,52.4,1011.4,341.4,3.1,6.6,332.6,0.02,0.6,14.3,"17:22:32",1
"20/04/05","17:40",0.0,9.8,53.3,1011.6,343.9,2.6,4.2,346.3,0.02,0.8,14.0,"17:38:32",1
"20/04/05","17:50",0.0,9.7,54.5,1011.6,347.6,2.8,5.2,338.7,0.01,1.0,14.0,"17:44:40",1
"20/04/05","18:00",0.0,9.6,55.0,1011.9,339.3,2.7,4.9,336.9,0.01,1.0,13.8,"17:55:08",1
"20/04/05","18:10",0.0,9.5,54.6,1011.9,344.4,2.7,5.2,340.8,0.01,0.9,14.0,"18:01:38",1
"20/04/05","18:20",0.0,9.5,54.8,1012.1,339.4,2.3,4.5,340.4,0.01,0.9,13.8,"18:15:46",1
"20/04/05","18:30",0.0,9.4,54.4,1012.1,351.1,2.7,5.4,314.5,0.00,0.7,13.6,"18:20:18",1
"20/04/05","18:40",0.0,9.3,54.9,1012.1,343.8,2.2,3.9,331.6,0.00,0.7,13.5,"18:31:36",1
"20/04/05","18:50",0.0,9.2,56.5,1011.9,345.3,1.8,3.1,337.0,0.00,1.0,13.3,"18:41:36",1
"20/04/05","19:00",0.0,9.0,56.8,1012.1,342.6,2.1,3.7,355.9,0.00,0.9,13.4,"18:50:56",1
"20/04/05","19:10",0.0,8.8,57.3,1012.3,342.3,2.1,3.5,354.0,0.00,0.9,13.5,"19:06:00",1
"20/04/05","19:20",0.0,8.8,57.2,1012.3,344.0,2.5,4.9,324.4,0.00,0.8,13.2,"19:17:12",1
"20/04/05","19:30",0.0,8.6,56.9,1012.1,342.7,2.3,4.3,325.1,0.00,0.6,13.0,"19:25:44",1
"20/04/05","19:40",0.0,8.7,57.1,1012.3,340.9,2.2,4.5,338.3,0.00,0.7,13.0,"19:32:16",1
"20/04/05","19:50",0.0,8.4,59.6,1012.6,330.7,1.8,2.8,319.5,0.00,1.0,13.1,"19:46:24",1
"20/04/05","20:00",0.0,8.2,59.1,1012.6,318.4,2.0,3.5,332.5,0.00,0.7,13.0,"19:59:28",1
"20/04/05","20:10",0.0,8.2,58.0,1012.6,323.5,2.5,4.4,342.7,0.00,0.5,12.9,"20:08:56",1
"20/04/05","20:20",0.0,8.0,57.4,1012.8,299.0,2.2,3.6,334.9,0.00,0.1,12.9,"20:10:08",1
"20/04/05","20:30",0.0,8.0,56.1,1013.0,316.1,2.7,4.7,323.5,0.00,-0.2,12.8,"20:25:52",1
"20/04/05","20:40",0.0,8.0,56.1,1013.3,314.7,3.2,6.2,332.9,0.00,-0.2,12.7,"20:33:20",1
"20/04/05","20:50",0.0,7.5,57.9,1013.0,313.4,2.7,4.8,331.7,0.00,-0.2,12.5,"20:49:44",1
"20/04/05","21:00",0.0,7.5,58.4,1013.3,329.5,3.4,5.5,337.2,0.00,-0.1,12.5,"20:53:28",1
"20/04/05","21:10",0.0,7.2,59.6,1013.3,312.1,2.7,4.4,313.9,0.00,-0.1,12.4,"21:05:28",1
"20/04/05","21:20",0.0,6.9,61.3,1013.3,319.3,2.5,4.2,314.1,0.00,0.0,12.4,"21:11:36",1
"20/04/05","21:30",0.0,6.4,63.3,1013.5,317.8,2.1,2.8,325.4,0.00,0.0,12.0,"21:21:44",1
"20/04/05","21:40",0.0,6.1,65.6,1013.5,330.0,2.1,3.1,337.6,0.00,0.2,12.2,"21:35:24",1
"20/04/05","21:50",0.0,5.8,67.7,1013.5,328.5,2.1,2.8,334.7,0.00,0.3,12.0,"21:48:20",1
"20/04/05","22:00",0.0,5.7,68.8,1013.3,323.7,1.7,2.4,332.5,0.00,0.5,12.2,"21:50:32",1
"20/04/05","22:10",0.0,5.7,69.8,1013.8,326.4,1.8,2.7,333.6,0.00,0.7,11.7,"22:00:10",1
"20/04/05","22:20",0.0,5.6,70.7,1013.5,328.6,1.7,2.1,315.4,0.00,0.7,11.9,"22:11:32",1
"20/04/05","22:30",0.0,5.6,71.5,1013.8,334.5,1.5,2.2,342.3,0.00,0.9,11.7,"22:25:30",1
"20/04/05","22:40",0.0,5.3,71.9,1013.8,325.2,1.7,2.2,333.6,0.00,0.7,11.5,"22:30:20",1
"20/04/05","22:50",0.0,5.6,72.5,1013.8,329.9,1.8,2.6,321.4,0.00,1.1,11.5,"22:49:02",1
"20/04/05","23:00",0.0,5.8,72.5,1013.5,330.0,2.3,3.2,338.3,0.00,1.3,11.4,"22:53:56",1
"20/04/05","23:10",0.0,5.8,72.6,1013.5,327.7,2.2,3.1,326.6,0.00,1.3,11.6,"23:04:28",1
"20/04/05","23:20",0.0,6.1,72.3,1013.5,329.2,2.0,3.4,337.5,0.00,1.5,11.4,"23:10:16",1
"20/04/05","23:30",0.0,6.0,72.3,1013.3,327.6,2.1,2.8,329.4,0.00,1.4,11.5,"23:20:56",1
"20/04/05","23:40",0.0,5.9,72.6,1013.3,336.7,1.5,2.7,342.5,0.00,1.4,11.3,"23:32:18",1
"20/04/05","23:50",0.0,5.6,72.9,1013.5,321.6,1.5,2.2,326.7,0.00,1.2,11.3,"23:43:34",1
"20/04/05","24:00",0.0,5.1,73.7,1013.5,328.9,1.8,2.6,330.0,0.00,0.8,11.3,"23:50:52",1
